Time,TemperatureF,DewpointF,PressureIn,WindDirection,WindDirectionDegrees,WindSpeedMPH,WindSpeedGustMPH,Humidity,HourlyPrecipIn,Conditions,Clouds,dailyrainin,SoftwareType,DateUTC
2013-07-17 00:02:00,79.0,-99.9,-100.00,WSW,254,0.0,0.0,-999,-99.99,,,-99.99,,2013-07-17 05:02:00,
2013-07-17 00:11:00,79.0,-99.9,-100.00,WSW,254,0.0,0.0,-999,-99.99,,,-99.99,,2013-07-17 05:11:00,
2013-07-17 00:22:00,79.0,-99.9,-100.00,WSW,254,0.0,0.0,-999,-99.99,,,-99.99,,2013-07-17 05:22:00,
2013-07-17 00:32:00,79.0,-99.9,-100.00,WSW,254,0.0,0.0,-999,-99.99,,,-99.99,,2013-07-17 05:32:00,
2013-07-17 00:43:00,79.0,-99.9,-100.00,WSW,254,0.0,0.0,-999,-99.99,,,-99.99,,2013-07-17 05:43:00,
2013-07-17 00:52:00,79.0,-99.9,-100.00,WSW,254,0.0,0.0,-999,-99.99,,,-99.99,,2013-07-17 05:52:00,
2013-07-17 01:01:00,78.0,-99.9,-100.00,WSW,254,0.0,0.0,-999,-99.99,,,-99.99,,2013-07-17 06:01:00,
2013-07-17 01:11:00,78.0,-99.9,-100.00,WSW,254,0.0,0.0,-999,-99.99,,,-99.99,,2013-07-17 06:11:00,
2013-07-17 01:22:00,78.0,-99.9,-100.00,WSW,250,0.0,0.0,-999,-99.99,,,-99.99,,2013-07-17 06:22:00,
2013-07-17 01:33:00,78.0,-99.9,-100.00,SW,220,0.0,3.0,-999,-99.99,,,-99.99,,2013-07-17 06:33:00,
2013-07-17 01:43:00,78.0,-99.9,-100.00,SW,220,0.0,0.0,-999,-99.99,,,-99.99,,2013-07-17 06:43:00,
2013-07-17 01:52:00,78.0,-99.9,-100.00,SW,220,0.0,0.0,-999,-99.99,,,-99.99,,2013-07-17 06:52:00,
2013-07-17 02:01:00,78.0,-99.9,-100.00,SW,220,0.0,0.0,-999,-99.99,,,-99.99,,2013-07-17 07:01:00,
2013-07-17 02:11:00,78.0,-99.9,-100.00,SW,222,0.0,4.0,-999,-99.99,,,-99.99,,2013-07-17 07:11:00,
2013-07-17 02:22:00,78.0,-99.9,-100.00,SW,222,0.0,0.0,-999,-99.99,,,-99.99,,2013-07-17 07:22:00,
2013-07-17 02:32:00,77.0,-99.9,-100.00,SW,227,0.0,0.0,-999,-99.99,,,-99.99,,2013-07-17 07:32:00,
2013-07-17 02:42:00,77.0,-99.9,-100.00,SW,227,0.0,0.0,-999,-99.99,,,-99.99,,2013-07-17 07:42:00,
2013-07-17 02:52:00,77.0,-99.9,-100.00,SW,227,0.0,0.0,-999,-99.99,,,-99.99,,2013-07-17 07:52:00,
2013-07-17 03:02:00,77.0,-99.9,-100.00,SSW,196,0.0,3.0,-999,-99.99,,,-99.99,,2013-07-17 08:02:00,
2013-07-17 03:11:00,77.0,-99.9,-100.00,WSW,248,0.0,3.0,-999,-99.99,,,-99.99,,2013-07-17 08:11:00,
2013-07-17 03:22:00,77.0,-99.9,-100.00,WSW,248,0.0,0.0,-999,-99.99,,,-99.99,,2013-07-17 08:22:00,
2013-07-17 03:32:00,77.0,-99.9,-100.00,WSW,248,0.0,0.0,-999,-99.99,,,-99.99,,2013-07-17 08:32:00,
2013-07-17 03:43:00,77.0,-99.9,-100.00,WSW,248,0.0,0.0,-999,-99.99,,,-99.99,,2013-07-17 08:43:00,
2013-07-17 03:53:00,77.0,-99.9,-100.00,WSW,248,0.0,0.0,-999,-99.99,,,-99.99,,2013-07-17 08:53:00,
2013-07-17 04:02:00,76.0,-99.9,-100.00,WSW,248,0.0,0.0,-999,-99.99,,,-99.99,,2013-07-17 09:02:00,
2013-07-17 04:12:00,76.0,-99.9,-100.00,WSW,248,0.0,0.0,-999,-99.99,,,-99.99,,2013-07-17 09:12:00,
2013-07-17 04:22:00,76.0,-99.9,-100.00,WSW,248,0.0,0.0,-999,-99.99,,,-99.99,,2013-07-17 09:22:00,
2013-07-17 04:32:00,76.0,-99.9,-100.00,WSW,248,0.0,0.0,-999,-99.99,,,-99.99,,2013-07-17 09:32:00,
2013-07-17 04:43:00,76.0,-99.9,-100.00,WSW,248,0.0,0.0,-999,-99.99,,,-99.99,,2013-07-17 09:43:00,
2013-07-17 04:52:00,76.0,-99.9,-100.00,WSW,248,0.0,0.0,-999,-99.99,,,-99.99,,2013-07-17 09:52:00,
2013-07-17 05:01:00,76.0,-99.9,-100.00,WSW,248,0.0,0.0,-999,-99.99,,,-99.99,,2013-07-17 10:01:00,
2013-07-17 05:11:00,76.0,-99.9,-100.00,ESE,120,0.0,0.0,-999,-99.99,,,-99.99,,2013-07-17 10:11:00,
2013-07-17 05:22:00,76.0,-99.9,-100.00,ESE,120,0.0,0.0,-999,-99.99,,,-99.99,,2013-07-17 10:22:00,
2013-07-17 05:32:00,76.0,-99.9,-100.00,ESE,120,0.0,0.0,-999,-99.99,,,-99.99,,2013-07-17 10:32:00,
2013-07-17 05:43:00,76.0,-99.9,-100.00,ESE,120,0.0,0.0,-999,-99.99,,,-99.99,,2013-07-17 10:43:00,
2013-07-17 05:52:00,76.0,-99.9,-100.00,ESE,120,0.0,0.0,-999,-99.99,,,-99.99,,2013-07-17 10:52:00,
2013-07-17 06:02:00,76.0,-99.9,-100.00,ESE,120,0.0,0.0,-999,-99.99,,,-99.99,,2013-07-17 11:02:00,
2013-07-17 06:11:00,76.0,-99.9,-100.00,ESE,120,0.0,0.0,-999,-99.99,,,-99.99,,2013-07-17 11:11:00,
2013-07-17 06:22:00,76.0,-99.9,-100.00,ESE,120,0.0,0.0,-999,-99.99,,,-99.99,,2013-07-17 11:22:00,
2013-07-17 06:32:00,76.0,-99.9,-100.00,ESE,120,0.0,0.0,-999,-99.99,,,-99.99,,2013-07-17 11:32:00,
2013-07-17 06:43:00,76.0,-99.9,-100.00,ESE,120,0.0,0.0,-999,-99.99,,,-99.99,,2013-07-17 11:43:00,
2013-07-17 07:02:00,76.0,-99.9,-100.00,ESE,120,0.0,0.0,-999,-99.99,,,-99.99,,2013-07-17 12:02:00,
2013-07-17 07:12:00,76.0,-99.9,-100.00,SW,215,0.0,4.0,-999,-99.99,,,-99.99,,2013-07-17 12:12:00,
2013-07-17 07:22:00,76.0,-99.9,-100.00,SW,215,0.0,0.0,-999,-99.99,,,-99.99,,2013-07-17 12:22:00,
2013-07-17 07:32:00,77.0,-99.9,-100.00,SSW,208,2.0,5.0,-999,-99.99,,,-99.99,,2013-07-17 12:32:00,
2013-07-17 07:43:00,77.0,-99.9,-100.00,West,260,3.0,5.0,-999,-99.99,,,-99.99,,2013-07-17 12:43:00,
2013-07-17 07:53:00,77.0,-99.9,-100.00,WSW,243,0.0,6.0,-999,-99.99,,,-99.99,,2013-07-17 12:53:00,
2013-07-17 08:02:00,78.0,-99.9,-100.00,SW,222,0.0,5.0,-999,-99.99,,,-99.99,,2013-07-17 13:02:00,
2013-07-17 08:12:00,79.0,-99.9,-100.00,SW,222,0.0,0.0,-999,-99.99,,,-99.99,,2013-07-17 13:12:00,
2013-07-17 08:22:00,79.0,-99.9,-100.00,WSW,243,0.0,3.0,-999,-99.99,,,-99.99,,2013-07-17 13:22:00,
2013-07-17 08:32:00,79.0,-99.9,-100.00,WSW,243,0.0,0.0,-999,-99.99,,,-99.99,,2013-07-17 13:32:00,
2013-07-17 08:43:00,80.0,-99.9,-100.00,WNW,285,0.0,0.0,-999,-99.99,,,-99.99,,2013-07-17 13:43:00,
2013-07-17 08:53:00,80.0,-99.9,-100.00,NNW,336,0.0,5.0,-999,-99.99,,,-99.99,,2013-07-17 13:53:00,
2013-07-17 09:02:00,81.0,-99.9,-100.00,North,355,4.0,0.0,-999,-99.99,,,-99.99,,2013-07-17 14:02:00,
2013-07-17 09:11:00,81.0,-99.9,-100.00,North,4,0.0,5.0,-999,-99.99,,,-99.99,,2013-07-17 14:11:00,
2013-07-17 09:22:00,82.0,-99.9,-100.00,WSW,247,0.0,4.0,-999,-99.99,,,-99.99,,2013-07-17 14:22:00,
2013-07-17 09:32:00,82.0,-99.9,-100.00,WSW,251,0.0,5.0,-999,-99.99,,,-99.99,,2013-07-17 14:32:00,
2013-07-17 09:43:00,83.0,-99.9,-100.00,WNW,282,0.0,5.0,-999,-99.99,,,-99.99,,2013-07-17 14:43:00,
2013-07-17 09:52:00,83.0,-99.9,-100.00,WNW,298,3.0,7.0,-999,-99.99,,,-99.99,,2013-07-17 14:52:00,
2013-07-17 10:02:00,84.0,-99.9,-100.00,West,270,4.0,5.0,-999,-99.99,,,-99.99,,2013-07-17 15:02:00,
2013-07-17 10:12:00,84.0,-99.9,-100.00,NNW,347,0.0,5.0,-999,-99.99,,,-99.99,,2013-07-17 15:12:00,
2013-07-17 10:22:00,85.0,-99.9,-100.00,West,270,0.0,5.0,-999,-99.99,,,-99.99,,2013-07-17 15:22:00,
2013-07-17 10:32:00,85.0,-99.9,-100.00,SW,234,3.0,4.0,-999,-99.99,,,-99.99,,2013-07-17 15:32:00,
2013-07-17 10:43:00,86.0,-99.9,-100.00,NNW,336,5.0,5.0,-999,-99.99,,,-99.99,,2013-07-17 15:43:00,
2013-07-17 10:52:00,87.0,-99.9,-100.00,ESE,105,4.0,0.0,-999,-99.99,,,-99.99,,2013-07-17 15:52:00,
2013-07-17 11:02:00,87.0,-99.9,-100.00,North,1,4.0,7.0,-999,-99.99,,,-99.99,,2013-07-17 16:02:00,
2013-07-17 11:11:00,87.0,-99.9,-100.00,West,261,3.0,0.0,-999,-99.99,,,-99.99,,2013-07-17 16:11:00,
2013-07-17 11:22:00,87.0,-99.9,-100.00,NNE,22,0.0,6.0,-999,-99.99,,,-99.99,,2013-07-17 16:22:00,
2013-07-17 11:33:00,88.0,-99.9,-100.00,NW,310,0.0,5.0,-999,-99.99,,,-99.99,,2013-07-17 16:33:00,
2013-07-17 11:43:00,88.0,-99.9,-100.00,SSE,147,3.0,5.0,-999,-99.99,,,-99.99,,2013-07-17 16:43:00,
2013-07-17 11:52:00,89.0,-99.9,-100.00,ENE,64,0.0,6.0,-999,-99.99,,,-99.99,,2013-07-17 16:52:00,
2013-07-17 12:02:00,89.0,-99.9,-100.00,NNE,22,0.0,6.0,-999,-99.99,,,-99.99,,2013-07-17 17:02:00,
2013-07-17 12:11:00,90.0,-99.9,-100.00,NNW,331,0.0,5.0,-999,-99.99,,,-99.99,,2013-07-17 17:11:00,
2013-07-17 12:22:00,87.0,-99.9,-100.00,NNW,331,0.0,0.0,-999,-99.99,,,-99.99,,2013-07-17 17:22:00,
2013-07-17 12:32:00,87.0,-99.9,-100.00,SE,139,3.0,0.0,-999,-99.99,,,-99.99,,2013-07-17 17:32:00,
2013-07-17 12:43:00,87.0,-99.9,-100.00,ENE,67,0.0,4.0,-999,-99.99,,,-99.99,,2013-07-17 17:43:00,
2013-07-17 12:52:00,87.0,-99.9,-100.00,ENE,68,0.0,0.0,-999,-99.99,,,-99.99,,2013-07-17 17:52:00,
2013-07-17 13:01:00,86.0,-99.9,-100.00,NNE,33,0.0,0.0,-999,-99.99,,,-99.99,,2013-07-17 18:01:00,
2013-07-17 13:11:00,86.0,-99.9,-100.00,NNE,33,0.0,0.0,-999,-99.99,,,-99.99,,2013-07-17 18:11:00,
2013-07-17 13:22:00,87.0,-99.9,-100.00,North,8,0.0,4.0,-999,-99.99,,,-99.99,,2013-07-17 18:22:00,
2013-07-17 13:32:00,88.0,-99.9,-100.00,North,8,0.0,0.0,-999,-99.99,,,-99.99,,2013-07-17 18:32:00,
2013-07-17 13:43:00,88.0,-99.9,-100.00,South,170,0.0,5.0,-999,-99.99,,,-99.99,,2013-07-17 18:43:00,
2013-07-17 13:52:00,88.0,-99.9,-100.00,West,271,4.0,7.0,-999,-99.99,,,-99.99,,2013-07-17 18:52:00,
2013-07-17 14:02:00,88.0,-99.9,-100.00,West,265,4.0,6.0,-999,-99.99,,,-99.99,,2013-07-17 19:02:00,
2013-07-17 14:11:00,88.0,-99.9,-100.00,WSW,247,4.0,4.0,-999,-99.99,,,-99.99,,2013-07-17 19:11:00,
2013-07-17 14:22:00,88.0,-99.9,-100.00,SW,223,4.0,8.0,-999,-99.99,,,-99.99,,2013-07-17 19:22:00,
2013-07-17 14:32:00,86.0,-99.9,-100.00,SW,234,5.0,6.0,-999,-99.99,,,-99.99,,2013-07-17 19:32:00,
2013-07-17 14:43:00,87.0,-99.9,-100.00,SSE,165,0.0,4.0,-999,-99.99,,,-99.99,,2013-07-17 19:43:00,
2013-07-17 15:02:00,89.0,-99.9,-100.00,SW,226,0.0,7.0,-999,-99.99,,,-99.99,,2013-07-17 20:02:00,
2013-07-17 15:11:00,89.0,-99.9,-100.00,WSW,240,4.0,8.0,-999,-99.99,,,-99.99,,2013-07-17 20:11:00,
2013-07-17 15:22:00,88.0,-99.9,-100.00,SW,215,0.0,6.0,-999,-99.99,,,-99.99,,2013-07-17 20:22:00,
2013-07-17 15:33:00,90.0,-99.9,-100.00,WSW,257,0.0,8.0,-999,-99.99,,,-99.99,,2013-07-17 20:33:00,
2013-07-17 15:43:00,90.0,-99.9,-100.00,West,268,0.0,6.0,-999,-99.99,,,-99.99,,2013-07-17 20:43:00,
2013-07-17 15:53:00,90.0,-99.9,-100.00,West,277,4.0,8.0,-999,-99.99,,,-99.99,,2013-07-17 20:53:00,
2013-07-17 16:02:00,89.0,-99.9,-100.00,SW,229,3.0,6.0,-999,-99.99,,,-99.99,,2013-07-17 21:02:00,
2013-07-17 16:12:00,88.0,-99.9,-100.00,South,175,0.0,3.0,-999,-99.99,,,-99.99,,2013-07-17 21:12:00,
2013-07-17 16:22:00,89.0,-99.9,-100.00,WSW,254,3.0,5.0,-999,-99.99,,,-99.99,,2013-07-17 21:22:00,
2013-07-17 16:32:00,89.0,-99.9,-100.00,West,264,0.0,4.0,-999,-99.99,,,-99.99,,2013-07-17 21:32:00,
2013-07-17 16:42:00,88.0,-99.9,-100.00,West,270,0.0,6.0,-999,-99.99,,,-99.99,,2013-07-17 21:42:00,
2013-07-17 16:53:00,88.0,-99.9,-100.00,WSW,251,4.0,5.0,-999,-99.99,,,-99.99,,2013-07-17 21:53:00,
2013-07-17 17:01:00,89.0,-99.9,-100.00,SSW,209,0.0,6.0,-999,-99.99,,,-99.99,,2013-07-17 22:01:00,
2013-07-17 17:11:00,89.0,-99.9,-100.00,SW,232,3.0,5.0,-999,-99.99,,,-99.99,,2013-07-17 22:11:00,
2013-07-17 17:22:00,89.0,-99.9,-100.00,SW,216,0.0,5.0,-999,-99.99,,,-99.99,,2013-07-17 22:22:00,
2013-07-17 17:32:00,89.0,-99.9,-100.00,SW,216,0.0,0.0,-999,-99.99,,,-99.99,,2013-07-17 22:32:00,
2013-07-17 17:43:00,89.0,-99.9,-100.00,South,171,0.0,6.0,-999,-99.99,,,-99.99,,2013-07-17 22:43:00,
2013-07-17 17:53:00,89.0,-99.9,-100.00,WSW,258,3.0,6.0,-999,-99.99,,,-99.99,,2013-07-17 22:53:00,
2013-07-17 18:02:00,89.0,-99.9,-100.00,WSW,244,0.0,0.0,-999,-99.99,,,-99.99,,2013-07-17 23:02:00,
2013-07-17 18:11:00,89.0,-99.9,-100.00,SSW,201,0.0,0.0,-999,-99.99,,,-99.99,,2013-07-17 23:11:00,
2013-07-17 18:22:00,88.0,-99.9,-100.00,SSW,201,0.0,0.0,-999,-99.99,,,-99.99,,2013-07-17 23:22:00,
2013-07-17 18:33:00,88.0,-99.9,-100.00,SW,223,3.0,6.0,-999,-99.99,,,-99.99,,2013-07-17 23:33:00,
2013-07-17 18:43:00,88.0,-99.9,-100.00,SSW,194,0.0,5.0,-999,-99.99,,,-99.99,,2013-07-17 23:43:00,
2013-07-17 18:52:00,88.0,-99.9,-100.00,SW,216,0.0,7.0,-999,-99.99,,,-99.99,,2013-07-17 23:52:00,
2013-07-17 19:01:00,88.0,-99.9,-100.00,SSW,203,0.0,6.0,-999,-99.99,,,-99.99,,2013-07-18 00:01:00,
2013-07-17 19:11:00,88.0,-99.9,-100.00,SW,230,0.0,6.0,-999,-99.99,,,-99.99,,2013-07-18 00:11:00,
2013-07-17 19:22:00,88.0,-99.9,-100.00,SW,230,0.0,6.0,-999,-99.99,,,-99.99,,2013-07-18 00:22:00,
2013-07-17 19:33:00,87.0,-99.9,-100.00,WSW,257,4.0,4.0,-999,-99.99,,,-99.99,,2013-07-18 00:33:00,
2013-07-17 19:43:00,87.0,-99.9,-100.00,SW,234,2.0,6.0,-999,-99.99,,,-99.99,,2013-07-18 00:43:00,
2013-07-17 19:52:00,87.0,-99.9,-100.00,SSW,209,3.0,5.0,-999,-99.99,,,-99.99,,2013-07-18 00:52:00,
2013-07-17 20:01:00,86.0,-99.9,-100.00,South,188,0.0,0.0,-999,-99.99,,,-99.99,,2013-07-18 01:01:00,
2013-07-17 20:11:00,86.0,-99.9,-100.00,WSW,255,0.0,5.0,-999,-99.99,,,-99.99,,2013-07-18 01:11:00,
2013-07-17 20:22:00,86.0,-99.9,-100.00,WSW,255,0.0,0.0,-999,-99.99,,,-99.99,,2013-07-18 01:22:00,
2013-07-17 20:32:00,85.0,-99.9,-100.00,WSW,244,2.0,4.0,-999,-99.99,,,-99.99,,2013-07-18 01:32:00,
2013-07-17 20:43:00,85.0,-99.9,-100.00,SSW,203,0.0,0.0,-999,-99.99,,,-99.99,,2013-07-18 01:43:00,
2013-07-17 20:53:00,84.0,-99.9,-100.00,SSW,203,0.0,0.0,-999,-99.99,,,-99.99,,2013-07-18 01:53:00,
2013-07-17 21:02:00,84.0,-99.9,-100.00,SSW,203,0.0,0.0,-999,-99.99,,,-99.99,,2013-07-18 02:02:00,
2013-07-17 21:11:00,84.0,-99.9,-100.00,SSW,203,0.0,0.0,-999,-99.99,,,-99.99,,2013-07-18 02:11:00,
2013-07-17 21:22:00,83.0,-99.9,-100.00,WSW,250,0.0,0.0,-999,-99.99,,,-99.99,,2013-07-18 02:22:00,
2013-07-17 21:32:00,83.0,-99.9,-100.00,WSW,248,3.0,5.0,-999,-99.99,,,-99.99,,2013-07-18 02:32:00,
2013-07-17 21:43:00,83.0,-99.9,-100.00,SW,234,0.0,5.0,-999,-99.99,,,-99.99,,2013-07-18 02:43:00,
2013-07-17 21:52:00,82.0,-99.9,-100.00,WSW,250,0.0,6.0,-999,-99.99,,,-99.99,,2013-07-18 02:52:00,
2013-07-17 22:01:00,82.0,-99.9,-100.00,SW,233,0.0,0.0,-999,-99.99,,,-99.99,,2013-07-18 03:01:00,
2013-07-17 22:11:00,82.0,-99.9,-100.00,West,261,3.0,4.0,-999,-99.99,,,-99.99,,2013-07-18 03:11:00,
2013-07-17 22:22:00,82.0,-99.9,-100.00,SW,233,3.0,0.0,-999,-99.99,,,-99.99,,2013-07-18 03:22:00,
2013-07-17 22:32:00,81.0,-99.9,-100.00,WSW,254,3.0,4.0,-999,-99.99,,,-99.99,,2013-07-18 03:32:00,
2013-07-17 22:43:00,81.0,-99.9,-100.00,SSW,201,0.0,1.0,-999,-99.99,,,-99.99,,2013-07-18 03:43:00,
2013-07-17 23:02:00,81.0,-99.9,-100.00,SSW,201,0.0,0.0,-999,-99.99,,,-99.99,,2013-07-18 04:02:00,
2013-07-17 23:12:00,81.0,-99.9,-100.00,SSW,201,0.0,0.0,-999,-99.99,,,-99.99,,2013-07-18 04:12:00,
2013-07-17 23:22:00,81.0,-99.9,-100.00,SSW,201,0.0,0.0,-999,-99.99,,,-99.99,,2013-07-18 04:22:00,
2013-07-17 23:32:00,80.0,-99.9,-100.00,SSW,201,0.0,0.0,-999,-99.99,,,-99.99,,2013-07-18 04:32:00,
2013-07-17 23:43:00,80.0,-99.9,-100.00,SSW,201,0.0,0.0,-999,-99.99,,,-99.99,,2013-07-18 04:43:00,
2013-07-17 23:52:00,80.0,-99.9,-100.00,SW,230,0.0,4.0,-999,-99.99,,,-99.99,,2013-07-18 04:52:00,